Regional Weather Roundup
Issued by NWS

Home | Current Version | Previous Version | Text Only | Print | Product List | Glossary On
Versions: 1 2 3 4 5 6 7 8 9 10 11 12 13 14 15 16 17 18 19 20 21 22 23 24 25 26 27 28 29 30 31 32 33 34 35 36 37 38 39 40 41 42 43 44 45 46 47 48 49 50
000
ASUS43 KTOP 221759
RWRKS

WEATHER ROUNDUP FOR KANSAS
NATIONAL WEATHER SERVICE GOODLAND KS
1200 PM CST MON DEC 22 2014

NOTE:  "FAIR" INDICATES FEW OR NO CLOUDS BELOW 12,000 FEET WITH NO
SIGNIFICANT WEATHER AND/OR OBSTRUCTIONS TO VISIBILITY.

KSZ001>006-013>018-027>032-041>047-221900-
NORTHWEST KANSAS

CITY           SKY/WX    TMP DP  RH WIND       PRES   REMARKS
GOODLAND       SUNNY     45  23  42 N25G38    29.67F
6HR MIN TEMP:  34; 6HR MAX TEMP:  45; 6HR PCP: TRACE;

HAYS           MOSUNNY   48  30  49 NW17      29.59F
HILL CITY      MOSUNNY   50  29  44 NW22G33   29.60F
6HR MIN TEMP:  40; 6HR MAX TEMP:  50;

RUSSELL        MOSUNNY   50  36  58 NW17G28   29.57F
6HR MIN TEMP:  40; 6HR MAX TEMP:  50; 6HR PCP:  0.01;

$$

KSZ061>065-074>080-084>089-221900-
SOUTHWEST KANSAS

CITY           SKY/WX    TMP DP  RH WIND       PRES   REMARKS
DODGE CITY     CLOUDY    47  30  51 NW20G28   29.67F
6HR MIN TEMP:  40; 6HR MAX TEMP:  49;

ELKHART          N/A     46  24  42 N16         N/A
GARDEN CITY    PTSUNNY   45  29  53 N25       29.69F
6HR MIN TEMP:  39; 6HR MAX TEMP:  47;

GREAT BEND     PTSUNNY   46  34  61 N20       29.61F
LIBERAL        SUNNY     48  32  53 NW23      29.72F
$$

KSZ066>073-081>083-090>101-221900-
SOUTHEAST KANSAS

CITY           SKY/WX    TMP DP  RH WIND       PRES   REMARKS
CHANUTE        LGT RAIN  47  47 100 SW10      29.53F
6HR MIN TEMP:  44; 6HR MAX TEMP:  47; 6HR PCP:  0.02;

COFFEYVILLE    LGT RAIN  49  48  97 SW6       29.54F FOG
6HR MIN TEMP:  45; 6HR MAX TEMP:  49; 6HR PCP: TRACE;

HUTCHINSON     PTSUNNY   50  38  63 NW18G25   29.56F
6HR MIN TEMP:  44; 6HR MAX TEMP:  52;

MEDICINE LODGE   N/A     51  37  58 N22G35    29.59F
NEWTON         CLOUDY    46  37  71 N18G25    29.56F
PARSONS        LGT RAIN  49  48  97 SW7       29.55F FOG
6HR MIN TEMP:  45; 6HR MAX TEMP:  49; 6HR PCP: TRACE;

WICHITA INTL   PTSUNNY   50  40  68 NW16G26   29.56F
6HR MIN TEMP:  45; 6HR MAX TEMP:  50; 6HR PCP: TRACE;

WICHITA JABRA  PTSUNNY   49  41  74 NW16      29.55F
6HR MIN TEMP:  44; 6HR MAX TEMP:  50;

WINFIELD       CLOUDY    48  47  96 W14       29.56F
6HR MIN TEMP:  45; 6HR MAX TEMP:  49;

$$

KSZ007>012-019>026-033>040-048>060-102>105-221900-
NORTHEAST KANSAS

CITY           SKY/WX    TMP DP  RH WIND       PRES   REMARKS
CONCORDIA      CLOUDY    46  40  79 NW14      29.52F
6HR MIN TEMP:  42; 6HR MAX TEMP:  46; 6HR PCP:  0.01;

EMPORIA        CLOUDY    46  45  96 SW10      29.51F
6HR MIN TEMP:  42; 6HR MAX TEMP:  46; 6HR PCP: TRACE;

LAWRENCE       LGT RAIN  45  43  93 S8        29.51F FOG
6HR MIN TEMP:  42; 6HR MAX TEMP:  45; 6HR PCP:  0.07;

MANHATTAN      LGT RAIN  46  42  86 NW8       29.51F
6HR MIN TEMP:  44; 6HR MAX TEMP:  47; 6HR PCP:  0.08;

OLATHE IND     LGT RAIN  43  43 100 S9        29.51F FOG
6HR MIN TEMP:  41; 6HR MAX TEMP:  43; 6HR PCP:  0.02;

OLATHE EXE     CLOUDY    44  43  96 S8        29.50F FOG
6HR MIN TEMP:  41; 6HR MAX TEMP:  44; 6HR PCP:  0.03;

SALINA         CLOUDY    47  39  74 NW15      29.55F
6HR MIN TEMP:  43; 6HR MAX TEMP:  47; 6HR PCP: TRACE;

TOPEKA BILLARD LGT RAIN  48  45  89 SW9       29.50F FOG
6HR MIN TEMP:  45; 6HR MAX TEMP:  48; 6HR PCP:  0.10;

TOPEKA FORBES  CLOUDY    47  44  90 SW12      29.49F FOG
6HR MIN TEMP:  44; 6HR MAX TEMP:  47; 6HR PCP:  0.10;

$$


USA.gov is the U.S. government's official web portal to all federal, state and local government web resources and services.